Location: WWIN Observatory
(34.8953°N, 91.9583°W)
Time: 07:09:31
(UTC-05:00)

Daily predictions for brighter satellites

Satellite Brightness Start Highest point End
(mag) Time Altitude Azimuth Time Altitude Azimuth Time Altitude Azimuth
DELTA 2 R/B (1) 3.7 20:47:20 10° WNW 20:52:55 78° NNE 20:58:28 10° ESE
Meteor 1-21 Rocket 4.2 20:50:31 10° S 20:56:02 86° E 21:01:35 10° N
Cosmos 2219 3.5 20:54:07 10° S 20:59:37 49° ESE 21:05:09 10° NNE
ATLAS CENTAUR R/B 3.9 20:58:21 10° WNW 21:01:15 18° WSW 21:03:59 10° SSW
Cosmos 1680 Rocket 4.1 20:59:15 10° N 21:04:13 41° ENE 21:09:11 10° SE
Cosmos 1441 Rocket 3.8 21:00:55 10° SSW 21:04:38 58° W 21:08:20 10° N
Cosmos 405 3.5 21:02:47 10° N 21:06:16 42° E 21:09:42 10° SSE
Meteor 2-2 Rocket 4.4 21:00:28 10° N 21:06:28 67° E 21:12:26 10° SSE
FENGYUN 3A 4.0 21:02:10 10° S 21:07:33 70° WSW 21:12:59 10° NNW
Cosmos 2322 Rocket 3.2 21:04:07 10° NW 21:09:26 45° WSW 21:14:45 10° S
Cosmos 923 Rocket 4.1 21:04:33 10° N 21:09:43 63° ENE 21:14:51 10° SSE
USA 186 2.5 21:09:01 10° SSW 21:11:05 34° W 21:13:15 10° NNW
Cosmos 2266 Rocket 4.0 21:05:11 10° S 21:11:25 68° E 21:17:34 10° NNE
Cosmos 2322 3.9 21:06:52 10° NNW 21:12:32 60° ENE 21:18:02 11° SSE
Cosmos 1898 Rocket 4.4 21:08:31 10° SSE 21:12:53 28° E 21:17:16 10° NE
Cosmos 773 Rocket 4.0 21:10:24 10° NNW 21:15:38 87° WSW 21:20:53 10° SSE
Cosmos 2360 Rocket 2.3 21:11:28 10° NNW 21:17:07 68° ENE 21:22:32 11° SSE
NOSS 3-1 (A) 3.5 21:13:03 10° S 21:18:37 51° ESE 21:24:39 10° NE
Cosmos 1553 Rocket 4.5 21:14:35 10° NNW 21:20:53 65° W 21:27:04 10° S
SL-16 R/B 3.5 21:17:15 10° NW 21:22:26 38° WSW 21:27:37 10° S
H-2A R/B 2.3 21:19:17 11° SSE 21:23:37 57° ENE 21:28:03 10° N
Cosmos 1437 2.7 21:22:02 10° S 21:25:18 84° E 21:28:35 10° N
SL-14 R/B 4.5 21:23:01 15° SE 21:25:20 25° E 21:28:38 10° NE
OTV 4 0.6 21:24:12 10° SW 21:27:05 49° SSE 21:29:40 12° E
Cosmos 2315 Rocket 4.3 21:22:27 10° N 21:28:25 48° E 21:33:35 14° SSE
Cosmos 1666 Rocket 4.4 21:25:56 14° SE 21:28:59 31° E 21:32:52 10° NNE
YAOGAN 6 4.3 21:27:34 14° ESE 21:29:07 18° ENE 21:31:39 10° NNE
Cosmos 1674 3.2 21:25:27 10° SSW 21:29:14 61° W 21:33:04 10° N
Cosmos 1908 3.5 21:28:56 10° NNW 21:32:50 70° W 21:36:44 10° S
ATLAS 2AS CENTAUR R/B 3.6 21:34:36 10° SSE 21:40:50 31° ESE 21:47:31 10° NE
Cosmos 2227 Rocket 3.1 21:39:38 18° SE 21:42:37 27° ESE 21:47:18 10° NE
ALOS 4.4 21:39:56 10° SSW 21:43:41 24° W 21:47:28 10° NW
ERS-1 Rocket 3.5 21:40:04 10° S 21:45:01 59° WSW 21:50:00 10° NNW
ERBS 2.5 21:41:41 10° SSW 21:45:05 51° SE 21:48:30 10° NE
CZ-4 SHROUD 3.6 21:45:24 30° SE 21:46:33 45° ENE 21:49:34 10° N
Tiangong 1 3.0 21:44:50 10° W 21:47:38 30° NNW 21:50:26 10° NE
Cosmos 1300 3.1 21:44:28 10° N 21:48:10 45° E 21:49:46 28° SE
OAO 2 Rocket 3.4 21:43:04 10° WSW 21:48:23 77° SSE 21:53:39 10° E
Envisat 3.0 21:45:26 15° SSE 21:49:38 89° E 21:54:45 10° NNW
MetOp-A 4.2 21:51:21 22° SSE 21:54:46 61° ENE 22:00:03 10° N
Sakura Rocket 4.1 21:51:35 10° SW 21:54:46 22° S 21:54:46 22° S
Meteor 1-11 4.2 21:50:38 10° S 21:56:24 77° E 22:02:07 10° NNE
Cosmos 2151 4.2 21:53:45 10° SSW 21:57:43 42° W 22:01:44 10° N
SL-16 R/B 4.5 22:00:19 10° NE 22:01:31 11° NE 22:02:42 10° ENE
Cosmos 2058 3.2 21:57:51 10° SSW 22:01:55 66° W 22:06:00 10° N
NOSS 3-1 (C) 4.2 21:58:27 10° SW 22:04:07 54° NW 22:10:22 10° NNE
Hubble Space Telescope 1.9 22:00:44 10° SW 22:03:43 25° S 22:03:43 25° S
Delta 2 Rocket 2.8 22:00:32 10° W 22:04:13 87° N 22:05:23 39° E
Cosmos 2333 Rocket 3.3 22:00:02 10° N 22:05:03 30° ENE 22:07:32 22° E
ARGOS 3.7 22:03:30 27° SE 22:05:57 44° ENE 22:11:02 10° N
CZ-4 R/B 4.1 22:03:34 10° NNE 22:08:17 47° E 22:10:05 32° SSE
Cosmos 1937 Rocket 3.4 22:03:27 12° S 22:08:19 72° ESE 22:13:31 10° NNE
Cosmos 2297 Rocket 2.9 22:07:58 29° SE 22:09:12 32° ESE 22:14:10 10° NE
Cosmos 1455 4.0 22:07:42 10° NNE 22:10:08 18° ENE 22:10:08 18° ENE
Cosmos 990 Rocket 4.0 22:13:16 28° S 22:15:52 58° ESE 22:20:55 10° NNE
Cosmos 2219 Rocket 2.6 22:11:20 10° N 22:16:46 49° ENE 22:18:54 33° ESE
COSMOS 2428 2.7 22:11:22 10° NNW 22:17:03 79° WSW 22:20:00 30° SSE
Cosmos 1726 2.0 22:14:04 10° N 22:17:52 88° E 22:18:49 49° S
PSLV R/B 3.9 22:17:19 37° SW 22:18:03 47° W 22:21:01 10° NNW
Sich 1 3.2 22:17:18 22° SSW 22:20:09 73° W 22:24:33 10° N
Cosmos 1633 Rocket 3.4 22:24:02 23° SSW 22:26:39 64° W 22:31:00 10° N
Cosmos 1862 Rocket 4.5 22:23:35 10° NNE 22:27:28 31° ENE 22:27:33 31° E
Cosmos 2242 Rocket 3.5 22:26:18 10° N 22:30:48 85° E 22:31:58 50° SSE
Meteor 1-4 Rocket 2.4 22:27:15 10° N 22:30:58 89° E 22:31:14 76° SSE
Meteor 2-10 4.3 22:25:25 10° N 22:31:08 65° E 22:33:01 41° SE
CZ-4B R/B 3.8 22:26:10 10° N 22:31:23 69° WNW 22:35:20 17° SSW
SPOT 5 3.8 22:30:38 21° SSW 22:33:10 40° W 22:37:41 10° NNW
USA 245 4.3 22:36:59 27° NNW 22:36:59 27° NNW 22:38:13 10° NNW
SL-23 DEB 4.1 22:33:01 10° WNW 22:37:08 45° SW 22:37:10 45° SW
DELTA 2 R/B (1) 4.3 22:34:06 10° W 22:39:08 36° SSW 22:40:00 34° SSW
Cosmos 1980 3.9 22:33:55 10° NNW 22:39:28 55° ENE 22:40:54 43° ESE
IGS 5A 4.5 22:43:41 33° ENE 22:43:41 33° ENE 22:47:12 10° N
Cosmos 1869 4.2 22:41:35 10° N 22:44:53 38° ENE 22:44:53 38° ENE
Cosmos 292 Rocket 3.8 22:40:52 10° NNW 22:45:37 71° WSW 22:46:35 54° SSW
H-2A R/B 2.4 22:46:30 47° ESE 22:47:31 54° ENE 22:52:49 10° N
FALCON 9 R/B 4.0 22:17:44 10° W 22:48:32 89° S 22:54:02 22° E
Cosmos 2237 Rocket 2.3 22:45:49 10° NNW 22:51:29 64° ENE 22:52:39 52° ESE
Cosmos 1271 Rocket 3.2 22:48:13 10° NNW 22:51:59 51° W 22:52:15 50° WSW
DELTA 2 DEB (DPAF) 4.0 22:52:03 74° SE 22:52:22 81° ENE 22:56:52 10° N
Cosmos 2082 3.9 22:49:35 20° SSW 22:53:40 71° WNW 22:59:23 10° NNE
CZ-4C R/B 3.6 22:54:41 53° N 22:54:41 53° N 22:57:26 10° N
Landsat 7 3.6 22:53:36 69° SE 22:54:06 79° ENE 22:58:52 10° N
Iridium 2 4.2 22:54:33 51° WSW 22:54:49 52° W 22:58:36 10° N
Cosmos 1626 2.4 22:56:29 64° NNW 22:56:29 64° NNW 22:59:45 10° N
SPOT 1/Viking Rocket 4.3 22:58:29 33° SW 23:00:10 44° W 23:05:06 10° NNW
Cosmos 1125 Rocket 3.5 23:00:29 63° ESE 23:00:38 63° ESE 23:05:53 10° NNE
Cosmos 44 Rocket 4.4 23:03:45 33° ENE 23:03:45 33° ENE 23:07:06 10° NE
OTV 4 3.2 23:00:34 10° W 23:01:15 15° W 23:01:15 15° W
Terra 1.7 23:09:58 79° ENE 23:09:58 79° ENE 23:14:44 10° N
SL-08 RB Rocket 4.4 23:11:03 42° WSW 23:11:28 43° W 23:15:45 10° NNW
Spot 4 3.8 23:21:30 77° NE 23:21:30 77° NE 23:26:09 10° N
Tiangong 1 3.9 23:22:33 10° NW 23:24:22 18° NNW 23:24:22 18° NNW
Cosmos 2227 Rocket 3.6 23:21:20 10° SW 23:26:27 35° WNW 23:31:37 10° N
Cosmos 1703 Rocket 4.4 23:24:35 10° N 23:27:50 45° NNE 23:27:50 45° NNE
ATLAS 2AS CENTAUR R/B 3.7 23:24:13 10° SW 23:31:26 52° NW 23:39:14 10° NNE
OAO 2 Rocket 3.5 23:27:57 10° W 23:32:37 69° W 23:32:37 69° W
Lacrosse 4 Rocket 2.4 23:36:43 10° NNW 23:40:03 47° N 23:40:03 47° N
Cosmos 2074 Rocket 4.2 23:45:00 54° E 23:45:00 54° E 23:50:53 10° NNE
ATLAS 3B R/B 2.5 23:39:00 10° NNW 23:45:57 79° ENE 23:46:35 72° ESE
Cosmos 1455 4.4 23:42:57 10° NW 23:45:10 21° WNW 23:45:10 21° WNW
SL-16 R/B 2.1 23:40:47 10° NNW 23:46:17 79° NNE 23:46:17 79° NNE
Cosmos 2221 Rocket 4.4 23:43:22 10° N 23:46:49 51° NNW 23:46:49 51° NNW
Cosmos 1709 Rocket 4.3 23:47:29 50° WSW 23:48:35 57° W 23:54:36 10° N
Cosmos 2333 Rocket 3.3 23:44:10 10° NW 23:49:16 33° WSW 23:49:33 33° WSW
Cosmos 2297 Rocket 3.8 23:49:42 17° WSW 23:53:09 30° WNW 23:58:06 10° N
